Regional Weather Roundup
Issued by NWS

Home | Current Version | Previous Version | Text Only | Print | Product List | Glossary On
Versions: 1 2 3 4 5 6 7 8 9 10 11 12 13 14 15 16 17 18 19 20 21 22 23 24 25 26 27 28 29 30 31 32 33 34 35 36 37 38 39 40 41 42 43 44 45 46 47 48 49 50
000
ASUS43 KDTX 310610
RWRMI
MICHIGAN HOURLY REGIONAL WEATHER ROUNDUP
NATIONAL WEATHER SERVICE DETROIT/PONTIAC MI
200 AM EDT FRI JUL 31 2015

NOTE: "FAIR" INDICATES FEW OR NO CLOUDS BELOW 12,000 FEET WITH NO
SIGNIFICANT WEATHER AND/OR OBSTRUCTION TO VISIBILITY.

MIZ047>049-052>055-059>063-066>070-074>076-081>083-310700-
SOUTHEAST LOWER MICHIGAN

CITY           SKY/WX    TMP DP  RH WIND       PRES   REMARKS
ADRIAN         PTCLDY    66  59  78 W5        30.00S
6HR MIN TEMP:  65; 6HR MAX TEMP:  79;

ALMA           CLEAR     65  60  82 SW5       29.95S
ANN ARBOR      PTCLDY    63  58  83 SW6       29.97F
BAD AXE        CLOUDY    63  59  87 CALM      29.92S
6HR MIN TEMP:  60; 6HR MAX TEMP:  78;

CARO           MOCLDY    62  59  91 CALM      29.92S
DETROIT CITY   CLEAR     73  57  57 W7        29.95F
6HR MIN TEMP:  73; 6HR MAX TEMP:  83;

DETROIT        CLEAR     69  59  70 SW6       29.96F
6HR MIN TEMP:  69; 6HR MAX TEMP:  82;

FLINT          CLEAR     69  58  67 SW7       29.95S
6HR MIN TEMP:  68; 6HR MAX TEMP:  82;

GROSSE ILE     CLEAR     70  59  68 SW7       29.95F
HILLSDALE      CLEAR     69  57  64 W3        30.01S
HOWELL         CLEAR     67  56  69 SW6       29.97S
6HR MIN TEMP:  67; 6HR MAX TEMP:  79;


CITY           SKY/WX    TMP DP  RH WIND       PRES   REMARKS
JACKSON        CLEAR     67  58  72 SW8       29.98F
6HR MIN TEMP:  65; 6HR MAX TEMP:  77;

LAMBERTVILLE   CLEAR     72  57  59 SW6       29.99S
6HR MIN TEMP:  70; 6HR MAX TEMP:  81;

LANSING        CLEAR     68  58  70 W8        29.97S
6HR MIN TEMP:  68; 6HR MAX TEMP:  81;

LAPEER         FAIR      65  59  82 CALM      29.95S
MASON          PTCLDY    66  57  72 SW3       29.97F
MONROE         CLEAR     66  60  79 W3        29.96F
MT. CLEMENS    CLEAR     71  59  64 W6        29.93S
6HR MIN TEMP:  71; 6HR MAX TEMP:  82;

PONTIAC        CLEAR     69  58  67 SW6       29.95F
6HR MIN TEMP:  68; 6HR MAX TEMP:  80;

PORT HOPE        N/A     64  61  90 S3        29.89F
6HR MIN TEMP:  63; 6HR MAX TEMP:  73;

PORT HURON     CLEAR     64  59  82 SW3       29.93F
TRI CITIES     PTCLDY    68  59  73 SW7       29.93S
6HR MIN TEMP:  67; 6HR MAX TEMP:  81;

MIDLAND        FAIR      68  57  68 W3        29.92S
6HR MIN TEMP:  64; 6HR MAX TEMP:  81;

TROY           CLEAR     72  57  60 SW5       29.97F
SAGINAW HB     PTCLDY    66  61  82 SW7       29.92S
$$
MIZ043>046-050>051-056>058-064>065-071>073-077>080-310700-
SOUTHWEST LOWER MICHIGAN

CITY           SKY/WX    TMP DP  RH WIND       PRES   REMARKS
BATTLE CREEK   CLEAR     67  59  75 SW7       29.99F
6HR MIN TEMP:  67; 6HR MAX TEMP:  80;

BENTON HARBOR  CLEAR     73  64  73 W12       29.99S
6HR MIN TEMP:  67; 6HR MAX TEMP:  80;

BIG RAPIDS     PTCLDY    65  57  75 W5        29.95S
6HR MIN TEMP:  65; 6HR MAX TEMP:  79;

COLDWATER      MOCLDY    65  57  75 SW6       30.00F
6HR MIN TEMP:  64; 6HR MAX TEMP:  78;

FREMONT        FAIR      62  60  94 CALM      29.95F
HOLLAND        CLEAR     74  59  59 NW7       29.99R
6HR MIN TEMP:  69; 6HR MAX TEMP:  79;

GRAND RAPIDS   CLEAR     67  60  78 W7        29.97S
6HR MIN TEMP:  67; 6HR MAX TEMP:  82;

IONIA          FAIR      65  59  79 W6        29.96S
6HR MIN TEMP:  65; 6HR MAX TEMP:  80;

KALAMAZOO      CLEAR     67  58  72 SW7       29.99F
6HR MIN TEMP:  66; 6HR MAX TEMP:  81;

LUDINGTON      CLEAR     65  61  87 SW3       29.94F
6HR MIN TEMP:  64; 6HR MAX TEMP:  76;

MARSHALL       CLEAR     65  58  77 W3        29.99S
MOUNT PLEASANT CLEAR     68  59  73 W6        29.94R
6HR MIN TEMP:  68; 6HR MAX TEMP:  82;

MUSKEGON         N/A     70  56  61 W3        29.96F
6HR MIN TEMP:  70; 6HR MAX TEMP:  77;

SOUTH HAVEN    CLEAR     73  63  71 W5        29.99S
$$
MIZ016>042-310700-
NORTHERN LOWER MICHIGAN

CITY           SKY/WX    TMP DP  RH WIND       PRES   REMARKS
ALPENA         CLEAR     60  54  80 S5        29.88F
6HR MIN TEMP:  56; 6HR MAX TEMP:  75; 6HR PCP: TRACE;

BEAVER ISLAND  CLEAR     67  61  82 W6        29.85F
6HR MIN TEMP:  64; 6HR MAX TEMP:  75;

BELLAIRE       MOCLDY    58  56  94 CALM      29.89S
6HR MIN TEMP:  57; 6HR MAX TEMP:  77;

CADILLAC       CLEAR     59  58  96 CALM      29.94F
CHARLEVOIX     CLEAR     69  60  73 W10       29.89F
6HR MIN TEMP:  63; 6HR MAX TEMP:  74;

FRANKFORT      CLEAR     67  62  83 W5        29.90F
GAYLORD        CLEAR     59  54  83 W3        29.91S
6HR MIN TEMP:  58; 6HR MAX TEMP:  76;

GRAYLING       CLEAR     61  55  79 W3        29.92F
6HR MIN TEMP:  58; 6HR MAX TEMP:  77;

HARBOR SPRINGS CLEAR     62  57  86 CALM      29.87S
HOUGHTON LAKE  CLEAR     68  58  70 W7        29.93F
6HR MIN TEMP:  61; 6HR MAX TEMP:  79;

MANISTEE       CLEAR     61  55  82 CALM      29.93S
OSCODA         CLEAR     62  60  93 CALM      29.89F
PELLSTON       CLEAR     53  51  93 CALM      29.87S
6HR MIN TEMP:  53; 6HR MAX TEMP:  75;

ROGERS CITY    CLEAR     62  54  74 S7        29.87F
TRAVERSE CITY  CLEAR     68  59  73 VRB5      29.88F
6HR MIN TEMP:  68; 6HR MAX TEMP:  82;

$$
MIZ007>008-015-310700-
EASTERN UPPER MICHIGAN

CITY           SKY/WX    TMP DP  RH WIND       PRES   REMARKS
KINROSS        PTCLDY    61  55  82 S5        29.83F
6HR MIN TEMP:  61; 6HR MAX TEMP:  72;

MACKINAC ISLAN CLEAR     67  55  65 S8        29.84S
MUNISING         N/A     70  57  63 VRB7      29.83S
6HR MIN TEMP:  67; 6HR MAX TEMP:  73;

$$
MIZ004>006-011>014-085-310700-
CENTRAL UPPER MICHIGAN

CITY           SKY/WX    TMP DP  RH WIND       PRES   REMARKS
MANISTIQUE     CLEAR     66  55  68 W6        29.83F
ESCANABA       CLEAR     64  57  77 W9        29.85F
6HR MIN TEMP:  64; 6HR MAX TEMP:  81;

MENOMINEE      CLEAR     64  55  72 W5        29.89F
6HR MIN TEMP:  64; 6HR MAX TEMP:  68;

SAWYER-GWINN   CLEAR     63  56  78 W5        29.87F
6HR MIN TEMP:  63; 6HR MAX TEMP:  77;

$$
MIZ001>003-009>011-084-310700-
WESTERN UPPER MICHIGAN

CITY           SKY/WX    TMP DP  RH WIND       PRES   REMARKS
IRON MOUNTAIN  CLEAR     65  58  78 W8        29.88F
6HR MIN TEMP:  65; 6HR MAX TEMP:  73;

HOUGHTON       CLEAR     58  54  86 W6        29.83F
6HR MIN TEMP:  57; 6HR MAX TEMP:  73; 6HR PCP:  0.12;

COPPER HARBOR    N/A     65  53  65 W7        29.79F
6HR MIN TEMP:  62; 6HR MAX TEMP:  71;

IRONWOOD       CLEAR     63  55  77 W8        29.88S
6HR MIN TEMP:  63; 6HR MAX TEMP:  75;

$$

ABBREVIATIONS USED IN REMARKS
   TC - TEMPERATURE IN CELSIUS
  WCI - WIND CHILL INDEX
   HX - HEAT INDEX
  VSB - VISIBILITY




USA.gov is the U.S. government's official web portal to all federal, state and local government web resources and services.